Bookmark and Share
Track history (hours):
 

Mike Weisend

More information available from US FCC via Universal Licensing System and Coast Guard Vessel Documentation Center.

Last reported at 2014-Apr-10 13:11 UTC. Time now 2014-Apr-16 07:36 UTC.
Position N 30°07' W 090°57'.

Length 54 m; draft 3 m.

Type: Towing. MMSI: 367486280.

NotesDate/timePositionNaut miles runAvg speedWind from/ knotsBaromVisibWave heightAir tempDewpointWater temp
2014-Apr-10 13:11N 30°07' W 090°57'2 2.8
2014-Apr-10 12:28N 30°06' W 090°55'5 4.8
2014-Apr-10 11:30N 30°03' W 090°51'4 4.5
2014-Apr-10 10:33N 29°59' W 090°48'5 5.2
2014-Apr-10 09:33N 30°01' W 090°43'4 4.1
2014-Apr-10 08:33N 30°03' W 090°38'5 5.1
2014-Apr-10 07:33N 30°03' W 090°32'4 3.7
2014-Apr-10 06:33N 30°02' W 090°28'3 3.5
2014-Apr-10 05:33N 29°60' W 090°25'5 4.8
2014-Apr-10 04:33N 29°56' W 090°21'5 5.4
2014-Apr-10 03:33N 29°58' W 090°15'6 0.1
2014-Apr-08 09:33N 29°56' W 090°22'6 6.4
2014-Apr-08 08:33N 30°00' W 090°28'6 5.7
2014-Apr-08 07:33N 30°03' W 090°34'6 6.1
2014-Apr-08 06:33N 30°02' W 090°41'6 5.4
2014-Apr-08 05:21N 29°60' W 090°48'0 0.0
2014-Apr-08 03:20N 29°60' W 090°48'0 0.4
2014-Apr-08 02:33N 30°00' W 090°48'0 0.1
2014-Apr-08 01:33N 29°60' W 090°48'0 0.1
2014-Apr-07 23:33N 30°00' W 090°48'2 0.2
2014-Apr-07 15:13N 29°59' W 090°49'  

Dump ship's entire track history

sailing weather and tide predictions

Mike Weisend — WDF7611 — position and weather